[[{"header":{"parameterUnit":"m.s-1","parameterCategory":1,"la1":30.2991,"la2":30.254,"lo1":-89.0895,"lo2":-89.0444,"dy":0.0017,"dx":0.0017,"nx":28,"ny":28,"refTime":"2025-05-31T03:00:00:Z","depth":0,"parameterNumber":2,"parameterNumberName":"U-component_of_WINDS"},"data":[0,0,0,0,0,0,0,0,0,0,0,0,0,0,0,0,0,0,0,0,0,0,0,0,0,0,0,0,0,0,0,0,0,0,0,0,0,0,0,0,0,0,0,0,0,0,0,0,0,0,0,0,0,0,0,0,0,0,1.6496,1.6495,0,1.6435,1.6434,1.6434,1.6336,1.6334,1.6332,1.6331,1.6271,1.6271,1.6271,0,0,0,0,0,0,0,0,0,0,0,0,0,1.653,1.653,1.6496,1.6495,1.6494,1.6435,1.6434,1.6434,1.6336,1.6334,1.6332,1.633,1.627,1.6271,1.6271,0,0,0,0,0,0,0,0,0,0,0,0,0,1.6497,1.653,1.6496,1.6439,1.6433,1.6435,1.6434,1.6433,1.6337,1.6334,1.6331,1.6329,1.627,1.6271,1.6271,1.6325,0,0,1.6271,1.6271,0,0,0,0,0,0,0,0,1.6499,1.6496,1.6448,1.6443,1.6436,1.639,1.6424,1.6397,1.6337,1.6373,1.6331,1.6328,1.6313,1.6309,1.6304,1.6322,1.6319,1.6271,1.6271,1.6271,1.6271,0,0,0,0,0,0,0,1.6501,1.6498,1.6472,1.6447,1.644,1.6417,1.6409,1.6419,1.6359,1.637,1.6363,1.6357,1.6309,1.6304,1.6302,1.6318,1.6271,1.6271,1.6271,1.6271,1.6377,1.638,0,0,0,0,0,0,1.6512,1.65,1.6474,1.647,1.6461,1.6418,1.641,1.6408,1.6358,1.6348,1.6359,1.6353,1.6305,1.6302,1.6299,1.6358,1.6271,1.6271,1.6271,1.6375,1.6378,1.6381,0,0,0,0,0,0,1.6513,1.651,1.6476,1.6483,1.6477,1.6421,1.6419,1.6408,1.6402,1.635,1.6339,1.6365,1.6303,1.6299,1.6319,1.6354,1.6271,1.6271,1.6371,1.6376,1.638,1.6477,0,0,0,0,0,0,1.6514,1.6511,1.653,1.6484,1.6477,1.6496,1.6421,1.6409,1.6403,1.6393,1.6352,1.6343,1.63,1.6319,1.6319,1.6353,1.6271,1.6368,1.6373,1.6378,1.647,1.6484,1.6495,0,0,0,0,0,1.6516,1.6561,1.6532,1.6529,1.65,1.6499,1.6494,1.6444,1.6406,1.6425,1.6392,1.6344,1.6351,1.6322,1.6321,1.6356,1.6365,1.6372,1.6378,1.6464,1.6481,1.6495,0,0,0,0,0,0,1.6613,1.6554,1.6521,1.6552,1.6531,1.6482,1.6504,1.6463,1.6453,1.6445,1.6383,1.6375,1.6402,1.6381,1.635,1.6405,1.6351,1.6357,1.6417,1.6433,1.6445,1.6448,1.6271,0,0,0,0,0,1.6638,1.6642,1.659,1.6623,1.6614,1.6562,1.6559,1.6522,1.6498,1.6488,1.6456,1.6435,1.6432,1.6432,1.6426,1.6468,1.6457,1.6491,1.6504,1.6514,1.652,1.6539,1.6553,1.6402,1.6402,1.6401,0,0,1.669,1.6658,1.6664,1.6641,1.662,1.6626,1.6554,1.6563,1.6566,1.649,1.6505,1.6482,1.6455,1.6485,1.6497,1.6468,1.656,1.6522,1.6531,1.6531,1.6547,1.6561,1.6574,1.6406,1.6405,1.6404,0,0,1.6786,1.6763,1.6787,1.6768,1.6737,1.6702,1.6709,1.6666,1.6647,1.6662,1.6605,1.6609,1.6606,1.6588,1.6579,1.667,1.6626,1.6671,1.6736,1.6755,1.6767,1.6778,1.6809,1.6821,1.6677,1.6677,1.6677,0,1.6854,1.6859,1.6805,1.6817,1.6808,1.674,1.6764,1.6748,1.6718,1.6714,1.6683,1.6677,1.6654,1.6679,1.6701,1.6697,1.6702,1.6673,1.677,1.678,1.6788,1.6817,1.6829,1.6682,1.6682,1.6681,1.6681,0,1.6943,1.6948,1.6971,1.6943,1.6937,1.6956,1.6905,1.6906,1.6871,1.684,1.6856,1.6826,1.6813,1.6817,1.6783,1.6838,1.6821,1.6781,1.6725,1.6809,1.6835,1.6846,1.669,1.6688,1.6687,1.6685,0,0,1.7096,1.7039,1.7048,1.7034,1.6996,1.6999,1.7015,1.7001,1.7003,1.6986,1.6997,1.6997,1.6959,1.6949,1.6912,1.693,1.7003,1.6888,1.6886,1.6908,1.706,1.7088,1.7102,1.6975,1.6977,1.6978,1.7062,0,1.7183,1.7205,1.7157,1.7191,1.7194,1.713,1.7144,1.7122,1.7095,1.7094,1.7063,1.7063,1.7015,1.7008,1.7023,1.6991,1.7032,1.6985,1.6984,1.6984,1.699,1.7116,1.7146,1.7226,1.7072,1.7074,1.7075,0,1.7286,1.7273,1.7306,1.7266,1.7266,1.7279,1.7263,1.7263,1.7239,1.7217,1.7206,1.7163,1.7176,1.7125,1.7142,1.7111,1.7108,1.7093,1.7094,1.709,1.7033,1.7113,1.725,1.7262,1.7091,1.7089,1.7088,0,1.7392,1.7383,1.7401,1.7392,1.7346,1.7357,1.7339,1.7311,1.7306,1.7293,1.7289,1.7279,1.7273,1.7266,1.7221,1.7188,1.7243,1.7188,1.7225,1.7226,1.7237,1.7237,1.7374,1.724,1.724,1.724,1.724,0,1.7491,1.7514,1.7448,1.7459,1.7483,1.7429,1.7455,1.743,1.7407,1.7412,1.7358,1.7365,1.7307,1.7308,1.7274,1.7292,1.7291,1.7273,1.7263,1.7276,1.7278,1.7272,1.7264,1.7243,1.7242,1.7242,1.7241,0,1.7612,1.7569,1.7584,1.7541,1.753,1.755,1.7512,1.7521,1.7491,1.7499,1.7498,1.745,1.7448,1.7404,1.7393,1.737,1.7402,1.7383,1.741,1.7403,1.7441,1.7438,1.7577,1.7592,1.7452,1.7453,1.7454,0,1.7677,1.7693,1.7651,1.765,1.7634,1.7635,1.763,1.7579,1.7576,1.7549,1.7561,1.7555,1.7547,1.7547,1.7512,1.7503,1.7482,1.7532,1.7481,1.7493,1.7481,1.7479,1.748,1.7542,1.7544,1.7545,1.7546,0,1.7797,1.7775,1.7769,1.7756,1.7751,1.7739,1.7723,1.7726,1.767,1.767,1.7667,1.7661,1.765,1.7644,1.7629,1.7611,1.757,1.7564,1.7571,1.7583,1.7597,1.7588,1.7437,1.756,1.7558,1.7557,1.7557,1.7556,1.789,1.79,1.7872,1.7868,1.7851,1.7838,1.7843,1.7814,1.781,1.7796,1.7768,1.7769,1.7745,1.7721,1.7706,1.7707,1.7682,1.7694,1.7696,1.7699,1.7706,1.76,1.7705,1.7704,1.7704,1.7704,1.7703,0,1.8004,1.7983,1.798,1.7959,1.7956,1.7918,1.7899,1.7899,1.7901,1.7881,1.7875,1.7872,1.7866,1.7831,1.7822,1.783,1.781,1.7829,1.7826,1.7822,1.773,1.7723,1.7844,1.7844,1.7844,1.7844,1.7844,1.7844,1.8063,1.8079,1.8054,1.8062,1.8041,1.8041,1.8034,1.8021,1.8005,1.8004,1.7999,1.7977,1.7951,1.794,1.7933,1.7923,1.7921,1.7946,1.7929,1.7843,1.7829,1.7816,1.7809,1.7946,1.7947,1.8021,1.8022,1.8022]},{"header":{"parameterUnit":"m.s-1","parameterCategory":1,"la1":30.2991,"la2":30.254,"lo1":-89.0895,"lo2":-89.0444,"dy":0.0017,"dx":0.0017,"nx":28,"ny":28,"refTime":"2025-05-31T03:00:00:Z","depth":0,"parameterNumber":3,"parameterNumberName":"V-component_of_WINDS"},"data":[0,0,0,0,0,0,0,0,0,0,0,0,0,0,0,0,0,0,0,0,0,0,0,0,0,0,0,0,0,0,0,0,0,0,0,0,0,0,0,0,0,0,0,0,0,0,0,0,0,0,0,0,0,0,0,0,0,0,-0.4961,-0.4963,0,-0.5129,-0.5131,-0.5133,-0.5241,-0.5242,-0.5242,-0.5243,-0.5417,-0.5421,-0.5425,0,0,0,0,0,0,0,0,0,0,0,0,0,-0.4734,-0.4738,-0.4961,-0.4963,-0.4965,-0.5129,-0.5131,-0.5134,-0.5241,-0.5242,-0.5243,-0.5243,-0.5416,-0.5421,-0.5425,0,0,0,0,0,0,0,0,0,0,0,0,0,-0.4861,-0.4739,-0.496,-0.5038,-0.5047,-0.5129,-0.5131,-0.5134,-0.5241,-0.5242,-0.5243,-0.5244,-0.5414,-0.542,-0.5426,-0.5444,0,0,-0.5445,-0.5447,0,0,0,0,0,0,0,0,-0.4853,-0.4869,-0.5025,-0.5033,-0.5043,-0.5165,-0.5116,-0.5238,-0.5241,-0.5167,-0.5243,-0.5244,-0.5333,-0.5345,-0.5375,-0.5452,-0.546,-0.5445,-0.5449,-0.5451,-0.5453,0,0,0,0,0,0,0,-0.4844,-0.4862,-0.5028,-0.5027,-0.5038,-0.5066,-0.5085,-0.5139,-0.5243,-0.5174,-0.5182,-0.52,-0.5338,-0.5369,-0.538,-0.5462,-0.5445,-0.545,-0.5454,-0.5457,-0.5564,-0.5564,0,0,0,0,0,0,-0.4823,-0.4854,-0.5022,-0.5033,-0.4948,-0.5069,-0.509,-0.5125,-0.5242,-0.5261,-0.5199,-0.5205,-0.5358,-0.5373,-0.5386,-0.5416,-0.5451,-0.5457,-0.5461,-0.5565,-0.5564,-0.5563,0,0,0,0,0,0,-0.4818,-0.4837,-0.5015,-0.4946,-0.497,-0.5072,-0.511,-0.5128,-0.5159,-0.5262,-0.5281,-0.5212,-0.5359,-0.5378,-0.5429,-0.5423,-0.546,-0.5465,-0.5566,-0.5565,-0.5564,-0.5474,0,0,0,0,0,0,-0.4811,-0.4834,-0.4841,-0.4945,-0.4974,-0.5054,-0.511,-0.513,-0.5169,-0.5178,-0.5278,-0.5296,-0.5362,-0.542,-0.5435,-0.5432,-0.547,-0.5567,-0.5566,-0.5564,-0.5478,-0.547,-0.5463,0,0,0,0,0,-0.4802,-0.481,-0.4841,-0.4861,-0.4985,-0.5054,-0.507,-0.5145,-0.5168,-0.5177,-0.5243,-0.5293,-0.5422,-0.5424,-0.5442,-0.5441,-0.5568,-0.5566,-0.5564,-0.5481,-0.5472,-0.5463,0,0,0,0,0,0,-0.4703,-0.4825,-0.4861,-0.4902,-0.4966,-0.5072,-0.5084,-0.5132,-0.5192,-0.5197,-0.5288,-0.531,-0.5352,-0.5403,-0.5403,-0.5466,-0.5501,-0.5502,-0.5431,-0.5423,-0.5416,-0.5403,-0.5475,0,0,0,0,0,-0.4686,-0.4731,-0.4835,-0.4861,-0.4892,-0.4982,-0.5015,-0.5067,-0.5138,-0.5166,-0.5236,-0.5303,-0.5359,-0.5394,-0.5451,-0.5486,-0.551,-0.5495,-0.5487,-0.5481,-0.5481,-0.5504,-0.5499,-0.5558,-0.5558,-0.5558,0,0,-0.4651,-0.4723,-0.4746,-0.4843,-0.4899,-0.4945,-0.5004,-0.505,-0.5085,-0.5173,-0.5226,-0.5279,-0.5361,-0.5404,-0.5427,-0.5447,-0.547,-0.5478,-0.5472,-0.5477,-0.5502,-0.5496,-0.5491,-0.5557,-0.5557,-0.5557,0,0,-0.4611,-0.4669,-0.4698,-0.4753,-0.4837,-0.4898,-0.4904,-0.5003,-0.5042,-0.5096,-0.5163,-0.5207,-0.5301,-0.5356,-0.5396,-0.5378,-0.5427,-0.5394,-0.5355,-0.5377,-0.5372,-0.5369,-0.5362,-0.5359,-0.5395,-0.5394,-0.5394,0,-0.4557,-0.4627,-0.4706,-0.4748,-0.4789,-0.4871,-0.4902,-0.4952,-0.505,-0.5077,-0.5098,-0.5219,-0.5279,-0.5337,-0.5332,-0.5362,-0.5374,-0.5383,-0.5366,-0.5364,-0.5361,-0.5356,-0.5354,-0.539,-0.539,-0.5391,-0.5391,0,-0.4557,-0.4605,-0.4618,-0.4711,-0.4753,-0.4789,-0.4875,-0.4909,-0.4957,-0.5016,-0.507,-0.5146,-0.522,-0.5238,-0.5286,-0.5303,-0.5313,-0.5349,-0.5386,-0.535,-0.5347,-0.5346,-0.5383,-0.5385,-0.5386,-0.5387,0,0,-0.4458,-0.4595,-0.4598,-0.4642,-0.4741,-0.478,-0.482,-0.4892,-0.492,-0.4986,-0.5022,-0.51,-0.5134,-0.518,-0.5235,-0.5254,-0.5235,-0.5289,-0.5292,-0.5276,-0.5259,-0.5231,-0.5228,-0.5269,-0.5269,-0.5269,-0.5253,0,-0.4432,-0.4507,-0.458,-0.4629,-0.4675,-0.4754,-0.4789,-0.4855,-0.491,-0.4958,-0.5021,-0.5074,-0.5115,-0.5144,-0.5166,-0.5233,-0.5233,-0.5235,-0.5304,-0.5305,-0.528,-0.5226,-0.5197,-0.5178,-0.5252,-0.5252,-0.5252,0,-0.4412,-0.4474,-0.4527,-0.4623,-0.4645,-0.4675,-0.4747,-0.4792,-0.4868,-0.4908,-0.4959,-0.5017,-0.5064,-0.5096,-0.5163,-0.5162,-0.5195,-0.5232,-0.5233,-0.5242,-0.5276,-0.5234,-0.5174,-0.5171,-0.5251,-0.5251,-0.5251,0,-0.4334,-0.4431,-0.4476,-0.451,-0.4623,-0.4643,-0.4691,-0.4768,-0.4807,-0.4871,-0.4897,-0.4966,-0.5003,-0.5055,-0.5131,-0.5147,-0.519,-0.5228,-0.5224,-0.5222,-0.5229,-0.5227,-0.5173,-0.525,-0.525,-0.525,-0.525,0,-0.4298,-0.4327,-0.4442,-0.447,-0.4506,-0.459,-0.4624,-0.4679,-0.4747,-0.4787,-0.4861,-0.4897,-0.4995,-0.5043,-0.5103,-0.5149,-0.5166,-0.52,-0.5215,-0.5193,-0.5188,-0.5215,-0.5218,-0.5249,-0.525,-0.525,-0.525,0,-0.4217,-0.4295,-0.4349,-0.4452,-0.4478,-0.45,-0.4589,-0.4619,-0.4679,-0.4729,-0.4746,-0.4841,-0.4902,-0.4983,-0.5069,-0.5109,-0.5148,-0.5173,-0.5122,-0.5131,-0.5123,-0.5122,-0.5084,-0.5083,-0.5159,-0.5158,-0.5158,0,-0.4188,-0.4213,-0.4318,-0.435,-0.4396,-0.4447,-0.4487,-0.4572,-0.4611,-0.47,-0.4719,-0.4786,-0.4843,-0.4937,-0.5014,-0.5081,-0.5107,-0.5089,-0.5118,-0.5095,-0.5107,-0.5105,-0.5108,-0.5082,-0.508,-0.5079,-0.5079,0,-0.413,-0.4167,-0.4222,-0.429,-0.4336,-0.4394,-0.4456,-0.4478,-0.4576,-0.4616,-0.4679,-0.4724,-0.4812,-0.4877,-0.4954,-0.5005,-0.5058,-0.5069,-0.5072,-0.5049,-0.5019,-0.5035,-0.5102,-0.507,-0.507,-0.5071,-0.5072,-0.5072,-0.4075,-0.41,-0.4179,-0.4237,-0.4293,-0.4349,-0.4382,-0.4447,-0.45,-0.4578,-0.4626,-0.4686,-0.4764,-0.4872,-0.4921,-0.497,-0.4991,-0.4995,-0.4996,-0.4996,-0.4988,-0.5011,-0.4985,-0.4985,-0.4986,-0.4986,-0.4986,0,-0.402,-0.4074,-0.4127,-0.4211,-0.4257,-0.4303,-0.4374,-0.441,-0.4463,-0.453,-0.4585,-0.4658,-0.4722,-0.4804,-0.4874,-0.4898,-0.4924,-0.4913,-0.4912,-0.4923,-0.4966,-0.4956,-0.4891,-0.4891,-0.4891,-0.4891,-0.4891,-0.4891,-0.3996,-0.4043,-0.4089,-0.4164,-0.4219,-0.4279,-0.4315,-0.4368,-0.4422,-0.4499,-0.4553,-0.4606,-0.468,-0.4756,-0.4817,-0.4839,-0.4862,-0.4843,-0.4873,-0.4911,-0.492,-0.4928,-0.492,-0.4847,-0.4847,-0.4827,-0.4826,-0.4826]}]]